AFR24E KJFK-LFPG

Flight info

Callsign AFR24E
Flight time N/A
Altitude 37000
Route MERIT DCT HFD DCT PUT DCT WITCH DCT ALLEX N535B UMESI/M082F390 DCT 5130N05000W 5330N04000W 5430N03000W 5430N02000W DCT NEBIN DCT OLGON/N0473F390 DCT MORAG DCT NUCHU DCT SFD UM605 BIBAX
Aircraft A343/H-SDE2E3FGHIJ4J5M1RWXY/LB1D1

Departure

Time N/A
Airport John F. Kennedy International Airport (KJFK)

Arrival

Time 2026-05-09 06:28
Airport Charles de Gaulle International Airport (LFPG)
Time Latitude Longitude Altitude Speed Heading
2026-05-09 05:30 52.66863 -5.22972 40000 ft 470 kts 117°
2026-05-09 05:30 52.65333 -5.18139 40000 ft 470 kts 117°
2026-05-09 05:30 52.62332 -5.08649 40001 ft 470 kts 117°
2026-05-09 05:31 52.59325 -4.99144 39996 ft 472 kts 117°
2026-05-09 05:31 52.56262 -4.89496 40000 ft 476 kts 117°
2026-05-09 05:32 52.53187 -4.79850 39999 ft 479 kts 118°
2026-05-09 05:32 52.50048 -4.70041 40003 ft 483 kts 118°
2026-05-09 05:33 52.46934 -4.60352 39997 ft 486 kts 118°
2026-05-09 05:33 52.43757 -4.50506 40001 ft 490 kts 118°
2026-05-09 05:34 52.40566 -4.40656 39999 ft 489 kts 118°
2026-05-09 05:34 52.37370 -4.30832 39999 ft 488 kts 118°
2026-05-09 05:35 52.34183 -4.21073 40001 ft 487 kts 118°
2026-05-09 05:35 52.31004 -4.11378 40000 ft 487 kts 118°
2026-05-09 05:36 52.27773 -4.01560 40000 ft 488 kts 118°
2026-05-09 05:36 52.24535 -3.91764 39999 ft 489 kts 118°
2026-05-09 05:37 52.21369 -3.82219 39997 ft 490 kts 118°
2026-05-09 05:37 52.18122 -3.72470 39999 ft 491 kts 118°
2026-05-09 05:38 52.14854 -3.62696 40000 ft 490 kts 118°
2026-05-09 05:38 52.11588 -3.52967 40000 ft 489 kts 118°
2026-05-09 05:39 52.08314 -3.43252 40001 ft 490 kts 119°
2026-05-09 05:39 52.05033 -3.33557 40000 ft 490 kts 119°
2026-05-09 05:40 52.01742 -3.23865 40001 ft 490 kts 119°
2026-05-09 05:40 51.98467 -3.14261 39997 ft 489 kts 119°
2026-05-09 05:41 51.95155 -3.04584 40001 ft 491 kts 119°
2026-05-09 05:41 51.91820 -2.94880 39999 ft 490 kts 119°
2026-05-09 05:42 51.88503 -2.85261 39998 ft 489 kts 119°
2026-05-09 05:42 51.85195 -2.75710 39999 ft 488 kts 119°
2026-05-09 05:43 51.81854 -2.66096 39999 ft 488 kts 119°
2026-05-09 05:43 51.78537 -2.56589 40001 ft 488 kts 120°
2026-05-09 05:44 51.75194 -2.47045 40001 ft 488 kts 120°
2026-05-09 05:44 51.71820 -2.37448 40001 ft 488 kts 120°
2026-05-09 05:45 51.68496 -2.28028 40001 ft 488 kts 120°
2026-05-09 05:45 51.65125 -2.18513 39997 ft 489 kts 120°
2026-05-09 05:46 51.61757 -2.09039 39997 ft 488 kts 120°
2026-05-09 05:46 51.58373 -1.99556 39998 ft 488 kts 120°
2026-05-09 05:47 51.54980 -1.90087 40001 ft 488 kts 120°
2026-05-09 05:47 51.52161 -1.82243 39995 ft 488 kts 120°
2026-05-09 05:48 51.50468 -1.77544 39859 ft 488 kts 120°
2026-05-09 05:48 51.48768 -1.72835 39670 ft 488 kts 120°
2026-05-09 05:48 51.47058 -1.68107 39495 ft 488 kts 120°
2026-05-09 05:48 51.45346 -1.63417 39295 ft 489 kts 121°
2026-05-09 05:49 51.43567 -1.58711 39100 ft 488 kts 122°
2026-05-09 05:49 51.41799 -1.54125 38997 ft 487 kts 122°
2026-05-09 05:49 51.38230 -1.44921 38998 ft 488 kts 122°
2026-05-09 05:50 51.34651 -1.35660 39001 ft 488 kts 122°
2026-05-09 05:50 51.31088 -1.26426 38998 ft 488 kts 122°
2026-05-09 05:51 51.27518 -1.17200 39001 ft 488 kts 122°
2026-05-09 05:51 51.23983 -1.08097 39003 ft 488 kts 122°
2026-05-09 05:52 51.20397 -0.98897 38998 ft 488 kts 122°
2026-05-09 05:52 51.16793 -0.89684 39003 ft 488 kts 122°
2026-05-09 05:53 51.13212 -0.80564 38999 ft 488 kts 122°
2026-05-09 05:53 51.09616 -0.71439 38900 ft 487 kts 122°
2026-05-09 05:54 51.07810 -0.66866 38704 ft 487 kts 122°
2026-05-09 05:54 51.06007 -0.62312 38485 ft 487 kts 122°
2026-05-09 05:54 51.04195 -0.57740 38263 ft 487 kts 122°
2026-05-09 05:54 51.02393 -0.53203 38020 ft 487 kts 122°
2026-05-09 05:55 51.00576 -0.48635 37768 ft 487 kts 122°
2026-05-09 05:55 50.98769 -0.44101 37523 ft 487 kts 122°
2026-05-09 05:55 50.96955 -0.39559 37276 ft 487 kts 122°
2026-05-09 05:55 50.95147 -0.35037 37029 ft 487 kts 122°
2026-05-09 05:56 50.93326 -0.30492 36783 ft 487 kts 122°
2026-05-09 05:56 50.91512 -0.25973 36526 ft 487 kts 122°
2026-05-09 05:56 50.89686 -0.21432 36284 ft 487 kts 122°
2026-05-09 05:56 50.87869 -0.16920 36053 ft 487 kts 122°
2026-05-09 05:57 50.86051 -0.12415 35799 ft 488 kts 122°
2026-05-09 05:57 50.84216 -0.07874 35543 ft 488 kts 123°
2026-05-09 05:57 50.82387 -0.03355 35295 ft 489 kts 123°
2026-05-09 05:57 50.80549 0.01178 35045 ft 489 kts 123°
2026-05-09 05:58 50.78711 0.05702 34787 ft 489 kts 123°
2026-05-09 05:58 50.76772 0.10128 34546 ft 489 kts 129°
2026-05-09 05:58 50.74475 0.14046 34292 ft 489 kts 138°
2026-05-09 05:58 50.71904 0.17593 34085 ft 485 kts 140°
2026-05-09 05:59 50.69348 0.20937 33840 ft 471 kts 141°
2026-05-09 05:59 50.66832 0.24145 33568 ft 462 kts 141°
2026-05-09 05:59 50.64310 0.27330 33284 ft 467 kts 141°
2026-05-09 05:59 50.61790 0.30507 32959 ft 479 kts 141°
2026-05-09 06:00 50.59156 0.33835 32609 ft 483 kts 141°
2026-05-09 06:00 50.56558 0.37130 32258 ft 477 kts 141°
2026-05-09 06:00 50.53999 0.40381 31910 ft 476 kts 141°
2026-05-09 06:00 50.51402 0.43673 31567 ft 478 kts 141°
2026-05-09 06:01 50.48804 0.46960 31229 ft 479 kts 141°
2026-05-09 06:01 50.46205 0.50248 30870 ft 479 kts 141°
2026-05-09 06:01 50.43619 0.53520 30539 ft 477 kts 141°
2026-05-09 06:01 50.41042 0.56770 30124 ft 477 kts 141°
2026-05-09 06:02 50.38449 0.60031 29674 ft 479 kts 141°
2026-05-09 06:02 50.35833 0.63317 29221 ft 481 kts 141°
2026-05-09 06:02 50.33230 0.66589 28759 ft 482 kts 141°
2026-05-09 06:02 50.30607 0.69881 28307 ft 483 kts 141°
2026-05-09 06:03 50.27993 0.73153 27843 ft 481 kts 141°
2026-05-09 06:03 50.25437 0.76345 27410 ft 477 kts 141°
2026-05-09 06:03 50.22814 0.79616 26943 ft 473 kts 141°
2026-05-09 06:03 50.20234 0.82830 26502 ft 469 kts 141°
2026-05-09 06:04 50.17697 0.85990 26046 ft 466 kts 141°
2026-05-09 06:04 50.15166 0.89142 25578 ft 463 kts 141°
2026-05-09 06:04 50.12661 0.92247 25055 ft 457 kts 142°
2026-05-09 06:04 50.10244 0.95241 24549 ft 430 kts 142°
2026-05-09 06:05 50.07975 0.98049 24092 ft 406 kts 142°
2026-05-09 06:05 50.05737 1.00656 23628 ft 400 kts 148°
2026-05-09 06:05 50.03307 1.02679 23312 ft 395 kts 154°
2026-05-09 06:05 50.00837 1.04535 22712 ft 393 kts 154°
2026-05-09 06:06 49.98385 1.06370 22328 ft 389 kts 154°
2026-05-09 06:06 49.95945 1.08200 21907 ft 387 kts 154°
2026-05-09 06:06 49.93522 1.10017 21445 ft 386 kts 154°
2026-05-09 06:06 49.91119 1.11820 21025 ft 384 kts 154°
2026-05-09 06:07 49.88721 1.13617 20601 ft 382 kts 154°
2026-05-09 06:07 49.86331 1.15407 20175 ft 380 kts 154°
2026-05-09 06:07 49.83991 1.17158 19774 ft 377 kts 154°
2026-05-09 06:07 49.81605 1.18942 19365 ft 375 kts 154°
2026-05-09 06:08 49.79291 1.20670 18953 ft 373 kts 154°
2026-05-09 06:08 49.76969 1.22402 18543 ft 370 kts 154°
2026-05-09 06:08 49.74626 1.24148 18148 ft 368 kts 154°
2026-05-09 06:08 49.72349 1.25843 17747 ft 366 kts 154°
2026-05-09 06:09 49.70060 1.27545 17342 ft 364 kts 154°
2026-05-09 06:09 49.67760 1.29254 16941 ft 362 kts 154°
2026-05-09 06:09 49.65497 1.30933 16563 ft 360 kts 154°
2026-05-09 06:09 49.63254 1.32596 16165 ft 357 kts 154°
2026-05-09 06:10 49.61015 1.34254 15789 ft 355 kts 154°
2026-05-09 06:10 49.58797 1.35894 15396 ft 353 kts 154°
2026-05-09 06:10 49.56602 1.37517 15026 ft 351 kts 154°
2026-05-09 06:10 49.54410 1.39135 14659 ft 349 kts 154°
2026-05-09 06:11 49.52223 1.40748 14291 ft 347 kts 155°
2026-05-09 06:11 49.50026 1.42367 13908 ft 346 kts 155°
2026-05-09 06:11 49.47863 1.43959 13544 ft 344 kts 155°
2026-05-09 06:11 49.45731 1.45527 13175 ft 342 kts 155°
2026-05-09 06:12 49.43572 1.47113 12802 ft 340 kts 155°
2026-05-09 06:12 49.41476 1.48652 12557 ft 334 kts 155°
2026-05-09 06:12 49.39408 1.50168 12382 ft 327 kts 155°
2026-05-09 06:12 49.37380 1.51654 12220 ft 319 kts 155°
2026-05-09 06:13 49.35397 1.53106 12055 ft 312 kts 155°
2026-05-09 06:13 49.33458 1.54524 11868 ft 307 kts 155°
2026-05-09 06:13 49.31608 1.56103 11594 ft 304 kts 142°
2026-05-09 06:13 49.30261 1.58576 11314 ft 302 kts 115°
2026-05-09 06:14 49.29753 1.61652 11064 ft 299 kts 95°
2026-05-09 06:14 49.29616 1.64807 10778 ft 297 kts 93°
2026-05-09 06:14 49.29496 1.67970 10601 ft 295 kts 93°
2026-05-09 06:14 49.29368 1.71105 10351 ft 295 kts 94°
2026-05-09 06:15 49.29234 1.74225 10019 ft 296 kts 94°
2026-05-09 06:15 49.29095 1.77379 9635 ft 297 kts 94°
2026-05-09 06:15 49.28956 1.80539 9248 ft 298 kts 94°
2026-05-09 06:15 49.28704 1.83683 8868 ft 298 kts 104°
2026-05-09 06:16 49.27897 1.86589 8496 ft 298 kts 124°
2026-05-09 06:16 49.26434 1.88791 8116 ft 295 kts 147°
2026-05-09 06:16 49.24693 1.90381 7727 ft 287 kts 151°
2026-05-09 06:16 49.22983 1.91849 7291 ft 278 kts 151°
2026-05-09 06:17 49.21325 1.93268 6845 ft 266 kts 151°
2026-05-09 06:17 49.19746 1.94618 6425 ft 255 kts 151°
2026-05-09 06:17 49.18227 1.95915 6028 ft 246 kts 151°
2026-05-09 06:17 49.16764 1.97163 5637 ft 237 kts 151°
2026-05-09 06:18 49.15335 1.98380 5277 ft 234 kts 151°
2026-05-09 06:18 49.13926 1.99578 4989 ft 224 kts 151°
2026-05-09 06:18 49.12600 2.00705 4937 ft 216 kts 151°
2026-05-09 06:18 49.11282 2.01824 4941 ft 217 kts 151°
2026-05-09 06:19 49.09975 2.02934 4944 ft 217 kts 151°
2026-05-09 06:19 49.08662 2.04047 4946 ft 217 kts 151°
2026-05-09 06:19 49.07332 2.05175 4948 ft 217 kts 151°
2026-05-09 06:19 49.06021 2.06286 4946 ft 217 kts 151°
2026-05-09 06:20 49.04698 2.07406 4947 ft 218 kts 151°
2026-05-09 06:20 49.03375 2.08527 4945 ft 217 kts 151°
2026-05-09 06:20 49.02040 2.09656 4945 ft 217 kts 151°
2026-05-09 06:20 49.00723 2.10769 4943 ft 215 kts 151°
2026-05-09 06:21 48.99449 2.11845 4934 ft 204 kts 151°
2026-05-09 06:21 48.98275 2.12876 4942 ft 189 kts 147°
2026-05-09 06:21 48.97404 2.14229 4927 ft 174 kts 112°
2026-05-09 06:21 48.97213 2.16000 4950 ft 170 kts 90°
2026-05-09 06:22 48.97255 2.17808 4967 ft 172 kts 86°
2026-05-09 06:22 48.97329 2.19620 4978 ft 173 kts 86°
2026-05-09 06:22 48.97416 2.21467 4877 ft 175 kts 85°
2026-05-09 06:22 48.97510 2.23298 4662 ft 175 kts 85°
2026-05-09 06:23 48.97609 2.25139 4416 ft 174 kts 85°
2026-05-09 06:23 48.97707 2.26965 4159 ft 173 kts 84°
2026-05-09 06:23 48.97804 2.28760 3917 ft 172 kts 85°
2026-05-09 06:23 48.97899 2.30570 3679 ft 171 kts 85°
2026-05-09 06:24 48.97996 2.32374 3450 ft 171 kts 85°
2026-05-09 06:24 48.98092 2.34176 3210 ft 170 kts 85°
2026-05-09 06:24 48.98188 2.35970 2989 ft 170 kts 85°
2026-05-09 06:24 48.98268 2.37738 2764 ft 169 kts 88°
2026-05-09 06:25 48.98316 2.39548 2518 ft 169 kts 86°
2026-05-09 06:25 48.98392 2.41315 2280 ft 168 kts 86°
2026-05-09 06:25 48.98493 2.43107 2063 ft 167 kts 83°
2026-05-09 06:25 48.98601 2.44883 1770 ft 169 kts 84°
2026-05-09 06:26 48.98717 2.46646 1534 ft 165 kts 84°
2026-05-09 06:26 48.98822 2.48332 1347 ft 155 kts 85°
2026-05-09 06:26 48.98928 2.49911 1117 ft 144 kts 81°
2026-05-09 06:26 48.99022 2.51407 948 ft 143 kts 88°
2026-05-09 06:27 48.99081 2.52903 793 ft 144 kts 84°
2026-05-09 06:27 48.99175 2.54457 634 ft 145 kts 85°
2026-05-09 06:27 48.99264 2.55987 457 ft 143 kts 83°
2026-05-09 06:27 48.99342 2.57455 363 ft 113 kts 84°
2026-05-09 06:28 48.99370 2.58042 364 ft 19 kts 85°
2026-05-09 06:28 48.99383 2.58259 364 ft 24 kts 85°
2026-05-09 06:28 48.99418 2.58532 364 ft 28 kts 69°
2026-05-09 06:28 48.99501 2.58809 367 ft 31 kts 65°
2026-05-09 06:29 48.99573 2.59040 364 ft 0 kts 65°
2026-05-09 06:29 48.99585 2.59079 365 ft 8 kts 65°
2026-05-09 06:29 48.99605 2.59191 358 ft 3 kts 80°
2026-05-09 06:32 48.99607 2.59213 364 ft 6 kts 87°
2026-05-09 06:32 48.99611 2.59305 361 ft 12 kts 82°
2026-05-09 06:33 48.99626 2.59572 364 ft 3 kts 85°
2026-05-09 06:33 48.99640 2.59640 363 ft 10 kts 59°
2026-05-09 06:33 48.99686 2.59683 366 ft 14 kts 13°
2026-05-09 06:34 48.99914 2.59661 365 ft 2 kts 355°
2026-05-09 06:34 48.99951 2.59657 363 ft 0 kts 355°
2026-05-09 06:34 48.99960 2.59655 363 ft 5 kts 352°
2026-05-09 06:35 48.99992 2.59605 364 ft 10 kts 293°
2026-05-09 06:35 48.99985 2.59478 365 ft 15 kts 262°
2026-05-09 06:35 48.99974 2.59290 366 ft 20 kts 265°
2026-05-09 06:35 48.99961 2.59047 364 ft 26 kts 265°
2026-05-09 06:36 48.99946 2.58755 365 ft 30 kts 265°
2026-05-09 06:36 48.99927 2.58430 364 ft 19 kts 265°
2026-05-09 06:36 48.99924 2.58375 360 ft 7 kts 265°
2026-05-09 06:36 48.99958 2.58299 366 ft 11 kts 328°
2026-05-09 06:37 49.00004 2.58183 363 ft 16 kts 269°
2026-05-09 06:37 48.99993 2.57983 363 ft 21 kts 265°
2026-05-09 06:37 48.99986 2.57845 364 ft 1 kts 265°
2026-05-09 06:37 48.99985 2.57820 364 ft 0 kts 268°
2026-05-09 06:38 48.99985 2.57810 364 ft 2 kts 268°